Wetbulb
33.22 34.34 34.00 34.33 35.35 36.40 37.10 36.58 37.06 39.84 40.44 40.41 40.30 40.33 40.31 40.63 40.92 41.70 41.99 42.85 43.41 44.06 44.79 45.52 46.24 46.67 47.05
31.42 32.09 32.74 34.57 34.97 34.86 36.04 37.25 36.38 37.68 38.62 38.73 38.80 38.90 39.22 39.59 39.90 40.16 40.74 41.03 41.62 42.32 43.43 44.12 44.75 45.56 45.96
29.53 32.88 33.43 34.36 33.85 34.66 34.32 34.01 34.93 36.23 37.35 37.73 38.16 38.54 39.00 39.47 39.71 39.81 39.93 40.57 41.09 41.78 41.83 42.04 43.01 43.77 44.42
30.45 30.62 31.83 33.20 33.16 30.61 29.85 31.50 30.86 33.43 35.06 35.83 36.88 37.33 38.02 38.81 39.07 39.35 40.30 41.01 40.29 40.36 40.56 41.08 41.70 41.70 42.82
29.07 29.48 29.60 29.39 28.34 29.64 28.13 28.71 30.16 31.60 30.21 30.80 32.09 32.34 33.08 35.84 36.49 38.17 38.57 38.97 39.31 39.70 40.09 40.50 40.59 41.05 41.95
29.72 28.11 28.11 28.64 28.94 27.82 27.76 26.96 24.15 30.25 28.32 27.30 30.17 29.66 31.87 33.60 36.92 37.28 37.94 38.63 40.05 40.57 40.39 40.00 40.92 40.65 41.38
28.73 28.31 27.45 28.47 28.97 28.04 27.31 26.39 25.33 28.01 28.00 25.83 29.36 28.92 31.89 33.68 36.49 37.16 38.36 39.05 39.77 40.12 40.37 40.77 40.99 41.33 41.49
30.66 29.89 30.34 31.10 29.93 28.81 27.89 27.16 27.69 28.45 28.57 23.51 27.75 27.26 29.63 31.55 35.33 35.49 36.36 37.46 38.77 39.28 39.88 40.22 40.28 40.52 40.89
33.68 33.86 33.54 33.00 31.96 28.80 25.67 24.44 22.78 24.13 27.04 25.31 25.71 26.68 27.76 28.17 30.55 34.96 36.14 36.82 38.79 39.60 39.98 40.06 40.04 40.25 39.35
29.10 29.33 29.96 29.57 31.83 28.49 26.79 23.50 23.20 21.80 25.70 24.00 24.56 25.73 23.55 28.23 29.76 31.72 32.35 36.15 37.35 38.69 39.23 39.34 38.64 36.95 37.14
26.95 26.77 27.34 27.37 27.13 27.76 28.14 26.16 24.01 23.40 27.33 27.25 25.35 25.52 25.30 25.49 28.41 30.95 32.32 33.10 34.03 34.34 36.21 36.83 37.35 37.54 35.05
25.19 24.99 24.89 25.09 25.88 27.00 28.29 28.63 29.02 27.62 28.27 27.81 25.10 25.09 24.87 24.98 25.58 29.84 31.65 33.08 32.62 32.34 33.11 35.35 36.94 37.31 37.79
23.71 23.90 25.06 25.77 27.00 27.67 27.85 27.99 28.08 28.28 28.90 28.02 27.16 27.54 28.12 26.46 26.40 28.46 29.44 30.06 31.75 31.37 31.92 32.64 32.60 34.57 33.81
23.75 24.49 25.20 25.42 25.50 26.17 25.41 25.59 25.20 25.19 28.08 28.54 28.76 28.98 27.68 28.72 29.38 28.44 29.01 27.40 30.95 31.92 32.37 32.75 33.96 35.72 35.82
23.21 22.85 23.66 24.54 24.17 25.78 25.74 25.31 23.69 23.97 24.66 26.91 28.94 30.38 30.86 30.64 28.25 28.46 28.61 29.30 31.09 31.51 31.45 31.17 33.46 35.15 38.35
22.89 22.95 23.01 22.56 23.35 24.79 25.03 24.59 23.57 24.07 24.75 26.17 27.23 27.53 29.28 30.20 33.07 28.93 29.56 29.48 30.73 31.31 31.68 30.06 32.60 37.37 39.76
23.26 23.00 22.16 23.10 23.41 23.41 24.26 24.21 23.94 24.82 25.64 26.59 26.33 26.42 24.73 22.80 28.61 33.46 28.71 29.50 30.65 30.74 31.45 31.52 34.40 36.81 39.35
MSLP
1022.27 1021.59 1020.82 1019.98 1019.25 1018.67 1018.02 1017.29 1016.47 1015.93 1015.10 1014.29 1013.63 1012.80 1012.01 1011.19 1010.51 1009.75 1009.13 1008.66 1008.30 1007.83 1007.43 1006.97 1006.45 1005.99 1005.69
1021.72 1021.09 1020.48 1019.54 1018.58 1017.79 1017.07 1016.40 1015.86 1015.38 1014.57 1013.53 1012.69 1011.86 1010.95 1010.10 1009.38 1008.69 1007.99 1007.48 1007.08 1006.66 1006.24 1005.79 1005.29 1005.00 1004.56
1021.09 1020.55 1019.72 1018.96 1017.84 1017.14 1016.41 1015.68 1015.34 1014.95 1014.12 1012.84 1011.58 1010.75 1009.92 1008.98 1008.13 1007.44 1006.75 1006.22 1005.79 1005.39 1004.98 1004.67 1004.19 1003.79 1003.60
1020.99 1020.12 1019.41 1018.47 1017.84 1016.67 1015.59 1015.64 1014.77 1014.08 1012.82 1012.04 1010.51 1009.62 1008.91 1007.94 1007.08 1006.39 1005.55 1004.98 1004.62 1004.20 1003.75 1003.30 1002.97 1002.68 1002.47
1020.80 1019.88 1018.95 1017.98 1017.48 1016.71 1015.74 1014.63 1014.16 1013.58 1011.79 1011.03 1009.52 1008.96 1007.87 1006.99 1006.09 1005.15 1004.45 1003.79 1003.14 1002.64 1002.17 1001.75 1001.43 1001.20 1000.99
1020.33 1019.42 1018.79 1018.05 1017.34 1016.78 1015.76 1014.40 1012.12 1012.84 1011.74 1009.51 1009.43 1007.72 1006.79 1005.79 1004.72 1004.05 1003.18 1002.25 1001.52 1000.99 1000.60 1000.26 999.97 999.72 999.43
1019.67 1019.17 1018.46 1017.90 1017.14 1015.94 1015.41 1014.44 1013.22 1012.40 1011.89 1008.59 1008.31 1006.60 1005.68 1004.31 1003.53 1002.55 1001.47 1000.51 999.77 999.20 998.70 998.35 998.08 997.84 997.68
1019.36 1018.82 1018.20 1017.44 1016.99 1016.14 1014.97 1013.40 1012.10 1011.55 1011.38 1008.91 1007.52 1005.93 1004.61 1003.39 1002.38 1001.20 999.62 998.85 998.11 997.29 996.66 996.20 995.93 995.76 995.65
1018.99 1018.31 1017.77 1017.05 1016.33 1015.23 1014.38 1013.52 1011.21 1010.08 1009.96 1008.95 1006.79 1005.22 1004.05 1002.02 1000.66 998.93 997.89 997.07 995.83 995.01 994.33 993.88 993.64 993.56 993.48
1018.45 1017.93 1017.46 1016.68 1015.72 1015.24 1014.31 1013.09 1011.95 1009.14 1008.52 1008.25 1006.24 1005.13 1002.22 1000.88 998.91 997.49 996.47 995.08 994.09 993.01 992.16 991.70 991.57 991.58 991.23
1018.13 1017.50 1016.77 1015.98 1015.08 1014.41 1013.82 1013.05 1011.51 1009.25 1007.57 1007.41 1005.64 1003.92 1002.59 999.15 997.07 996.15 995.07 993.42 992.52 991.57 990.68 989.99 989.60 989.68 989.43
1017.74 1017.01 1016.11 1015.23 1014.13 1013.39 1012.40 1011.51 1010.64 1009.12 1007.08 1006.74 1005.02 1003.61 1001.08 998.29 995.71 994.22 993.17 992.10 991.46 990.40 989.48 988.73 988.15 987.78 987.64
1017.39 1016.94 1016.06 1014.75 1013.36 1012.18 1011.21 1010.12 1008.82 1007.60 1006.26 1005.10 1003.99 1002.22 1000.43 997.82 995.36 992.97 991.82 990.07 989.78 988.87 988.16 987.33 986.66 986.23 985.92
1017.12 1016.79 1015.66 1014.17 1012.77 1011.86 1010.39 1008.93 1007.45 1005.22 1004.52 1003.39 1002.33 1000.95 998.70 996.77 994.72 992.16 991.21 989.79 988.28 987.49 986.75 985.74 985.07 984.50 984.44
1017.01 1016.23 1015.00 1013.70 1012.49 1011.39 1010.10 1008.40 1007.07 1004.88 1002.67 1001.25 1000.27 999.22 997.30 995.48 993.43 991.69 989.77 988.40 987.29 986.15 985.58 984.41 983.66 983.24 983.08
1016.52 1016.02 1014.88 1013.47 1012.05 1010.66 1009.45 1008.09 1006.36 1004.34 1002.42 1000.50 998.60 996.51 994.33 993.14 992.43 990.47 988.95 987.44 986.04 984.87 984.10 983.44 982.55 982.11 982.12
1016.04 1015.52 1014.48 1013.06 1011.73 1010.05 1008.58 1007.14 1005.42 1003.82 1001.93 1000.17 998.63 996.83 994.14 991.63 989.28 989.56 988.07 986.10 984.65 983.38 982.50 981.83 981.26 981.34 981.51
Wind_Speed
11 12 15 16 15 14 15 15 14 26 30 33 34 36 36 37 37 36 35 34 36 36 34 35 35 34 34
12 12 15 15 16 17 13 12 13 22 32 32 35 36 36 36 35 35 35 35 35 35 35 35 35 35 36
14 11 12 12 15 14 14 14 10 25 30 32 33 35 35 35 35 34 34 34 35 35 34 36 36 36 37
11 13 12 13 12 14 13 11 13 13 21 26 31 32 34 34 33 34 33 33 35 37 38 35 34 36 36
12 13 13 13 14 13 15 15 13 13 16 14 13 14 17 26 28 32 32 34 35 36 36 36 34 34 34
11 14 15 14 13 14 16 15 19 6 13 20 14 15 15 14 28 34 36 36 36 35 36 37 35 35 36
14 13 16 16 18 19 17 16 17 15 17 21 14 17 15 16 32 36 37 37 37 37 37 37 36 36 36
11 14 15 17 16 16 20 21 17 12 13 20 15 17 17 15 32 39 41 39 38 38 38 38 37 36 35
23 26 27 27 23 14 13 15 18 16 12 16 15 17 17 19 18 34 35 37 36 36 36 36 36 35 29
13 14 18 17 24 13 13 15 15 21 12 15 17 17 17 15 15 16 17 28 35 36 36 36 36 18 15
10 11 11 11 11 11 13 13 16 18 20 17 18 18 15 20 15 14 16 18 16 20 32 34 33 27 13
10 11 11 12 12 14 16 16 15 20 22 20 16 18 19 20 23 18 16 16 14 15 13 18 27 30 29
10 11 11 13 16 15 15 18 19 19 16 20 17 18 17 20 22 20 22 17 14 12 10 10 11 10 10
10 12 13 12 13 13 15 16 16 17 17 18 19 19 18 18 19 21 17 17 16 13 11 11 11 10 10
10 12 13 13 13 13 14 15 15 17 18 18 19 19 18 20 18 17 18 17 15 13 12 11 9 8 10
10 12 13 14 14 15 14 14 16 17 18 18 19 19 16 13 19 15 16 15 14 14 11 10 8 7 9
10 12 13 13 19 15 15 15 16 16 17 18 17 18 19 23 20 16 16 15 14 13 10 9 8 9 10
Wind_Direction
290 295 295 295 297 293 290 288 287 294 297 300 299 296 297 294 292 288 286 282 279 278 279 278 276 276 278
294 299 292 294 295 297 297 295 300 301 299 300 298 296 293 291 290 288 284 284 281 277 274 276 276 276 276
290 294 298 301 301 298 300 297 301 301 297 294 295 293 291 289 288 286 283 279 276 277 279 281 275 275 276
296 304 304 305 303 310 307 304 302 297 290 291 291 293 292 290 290 288 283 281 281 281 279 274 272 272 271
298 302 304 311 312 313 302 305 301 302 298 291 293 295 287 287 283 281 282 281 280 278 276 274 271 269 268
293 299 301 306 308 307 303 308 311 288 305 294 292 287 284 280 284 287 285 282 279 277 275 274 272 269 269
293 297 305 306 304 308 306 299 296 300 293 291 297 287 289 284 290 288 285 281 278 276 273 271 268 265 261
297 298 294 302 304 303 301 299 292 292 289 285 298 290 293 287 291 289 284 283 279 274 271 269 266 263 260
304 304 306 306 304 304 301 304 301 299 295 285 293 292 294 290 282 280 284 284 282 279 275 271 269 266 261
308 304 302 295 300 299 299 298 296 296 296 298 297 299 296 286 277 288 280 278 286 285 282 279 274 264 252
304 300 298 301 300 295 291 289 289 284 291 303 299 293 280 298 282 286 287 288 287 286 281 278 275 265 250
307 306 311 307 304 298 294 287 278 280 292 292 286 288 289 290 294 296 290 290 288 281 280 271 266 262 254
313 309 307 303 301 303 301 295 289 286 286 287 281 283 281 286 291 298 304 301 286 273 269 263 252 244 235
313 306 304 306 310 311 307 308 303 304 298 294 291 287 286 284 288 295 294 289 294 284 280 274 260 234 223
315 308 308 312 313 308 304 307 304 309 310 308 301 291 285 284 292 289 292 289 288 287 285 276 262 220 216
313 309 310 313 308 309 307 309 309 308 307 309 310 309 300 285 270 289 289 288 292 286 272 266 246 202 172
317 312 306 304 312 307 309 312 310 307 307 309 311 313 316 312 318 300 294 294 293 291 281 243 206 186 169